Location: Bukit Setapoh
(2.2500°N, 113.8000°E)
Time: 23:40:33
(UTC+00:00)

Cosmos 1602 Rocket - Pass Details

Date: 25 July 2021
Orbit: 604 x 632 km, 82.5° (Epoch: 18 September)

Event Time Altitude Azimuth Distance (km) Brightness Sun altitude
Rises 10:53:42 0° 174° (S) 2,908 6.7 -4.5°
Reaches altitude 10° 10:56:00 10° 168° (SSE) 1,996 5.9 -5.0°
Maximum altitude 11:00:16 48° 93° (E) 813 3.8 -6.0°
Drops below altitude 10° 11:04:28 10° 19° (NNE) 1,972 6.2 -7.0°
Sets 11:06:44 0° 14° (NNE) 2,870 7.1 -7.6°
